Terug naar catalogus

PEGASUS R/B

ActiefPO
NORAD 31305·ROCKET BODY·🇺🇸 United States

Gelanceerd Apr 25, 2007 vanaf Vandenberg Space Force Base

Loading…

Volgende Passages (komende 24 uur)

TLE

VersSource: Space-Track

Epoch: Sep 14, 2026, 09:50 UTC

1 31305U 07015B   26257.41014910  .00006913  00000-0  24299-3 0  9995
2 31305  97.9374 232.4159 0011635  18.6648 341.5015 15.29668668 62697

Volg PEGASUS R/B in realtime met AllMySat

Download on the App Store